Find Starlink 37119

NORAD ID: 68210 Int'l Des: 2026-053 Owner: SPXS Country: US Constellation: starlink operational
LEOCIRCULARRETROGRADE

Live Position

Loading 3D Globe...

About Starlink 37119

Description loading...

Upcoming Passes

Passes for default location (London). Set your location on the main map for personalized predictions.

Altitude History

Loading altitude history...

Two-Line Element Set

1 68210U 26053D 26121.92345743 .00010061 00000-0 31350-3 0 9995
2 68210 97.2854 357.6632 0002330 90.8475 269.3035 15.33449034 8379
Epoch: May 1, 2026 • Age: 8 hours

Current Status

Altitude 477.5 km
Velocity 7.63 km/s
Sub-Earth Point 82.64°N, 37.66°W
Launch Date Mar 17, 2026
Age 0.1 years
Type internet

Technical Details

Classification Payload
Mass 575.00 kg
Dry Mass 530.00 kg
Total Mass 575.00 kg
Length 0.30 m
Diameter 4.10 m
Span 29.00 m
Shape Box + pan
Manufacturer SPXS
Bus Type Starlink V2MO
Phase Status In Orbit
Owner/State SPXS/US

Most Searched